Voltar ao catálogo

STARLINK-4799

AtivoComunicaçõesVLEO
NORAD 53860·PAYLOAD·🇺🇸 United States

Lançado Sep 19, 2022 de Cape Canaveral Space Force Station

Loading…

Próximas Passagens (próximas 24 horas)

TLE

AtualizadoSource: CelesTrak SupGP

Época: Sep 14, 2026, 13:50 UTC

1 53860C 22114AU  26257.57687500  .00046369  00000+0  14911-2 0  2574
2 53860  53.1569 146.2389 0001394  95.3491 143.4805 15.31678625    14

Acompanhe STARLINK-4799 em tempo real com AllMySat

Download on the App Store